RYR41WM EGGW-EICK

Flight info

Callsign RYR41WM
Flight time N/A
Altitude 38000
Route RODNI N27 ICTAM Q63 CPT Y321 EXARO N514 ADKIK DCT FONZU DCT CANZI L38 SAMON DCT ERTER ERTER1G
Aircraft B738/M-SDE2E3FGHIRWXY/LB1

Departure

Time 2026-04-29 18:22
Airport London Luton Airport (EGGW)

Arrival

Time N/A
Airport Cork International Airport (EICK)
Time Latitude Longitude Altitude Speed Heading
2026-04-29 17:53 51.87925 -0.37922 522 ft 0 kts 100°
2026-04-29 18:12 51.87926 -0.37930 522 ft 3 kts 100°
2026-04-29 18:12 51.87931 -0.37972 522 ft 3 kts 100°
2026-04-29 18:13 51.87938 -0.38005 522 ft 4 kts 158°
2026-04-29 18:13 51.87955 -0.38004 522 ft 2 kts 208°
2026-04-29 18:13 51.87972 -0.37990 522 ft 0 kts 208°
2026-04-29 18:16 51.87951 -0.38003 522 ft 10 kts 199°
2026-04-29 18:17 51.87879 -0.38007 522 ft 10 kts 165°
2026-04-29 18:17 51.87819 -0.37952 522 ft 10 kts 135°
2026-04-29 18:17 51.87785 -0.37859 522 ft 10 kts 115°
2026-04-29 18:17 51.87757 -0.37764 522 ft 9 kts 115°
2026-04-29 18:18 51.87726 -0.37658 519 ft 13 kts 115°
2026-04-29 18:18 51.87682 -0.37522 520 ft 13 kts 126°
2026-04-29 18:18 51.87603 -0.37459 522 ft 13 kts 174°
2026-04-29 18:18 51.87517 -0.37495 520 ft 13 kts 225°
2026-04-29 18:19 51.87487 -0.37630 522 ft 13 kts 253°
2026-04-29 18:19 51.87464 -0.37767 522 ft 13 kts 255°
2026-04-29 18:19 51.87440 -0.37905 522 ft 13 kts 253°
2026-04-29 18:19 51.87405 -0.38030 523 ft 12 kts 225°
2026-04-29 18:20 51.87352 -0.38079 522 ft 0 kts 206°
2026-04-29 18:21 51.87347 -0.38083 521 ft 1 kts 206°
2026-04-29 18:21 51.87319 -0.38104 521 ft 10 kts 205°
2026-04-29 18:21 51.87257 -0.38052 523 ft 15 kts 96°
2026-04-29 18:22 51.87315 -0.37699 521 ft 64 kts 74°
2026-04-29 18:22 51.87492 -0.36678 527 ft 123 kts 74°
2026-04-29 18:22 51.87757 -0.35135 791 ft 156 kts 75°
2026-04-29 18:22 51.88042 -0.33316 1435 ft 171 kts 79°
2026-04-29 18:23 51.88343 -0.31475 2411 ft 162 kts 73°
2026-04-29 18:23 51.88703 -0.29604 2853 ft 189 kts 77°
2026-04-29 18:23 51.89097 -0.27458 3357 ft 205 kts 78°